Hourly Weather Roundup
Issued by NWS Central Illinois

Home | Current Version | Previous Version | Text Only | Print | Product List | Glossary On
Versions: 1 2 3 4 5 6 7 8 9 10 11 12 13 14 15 16 17 18 19 20 21 22 23 24 25 26 27 28 29 30 31 32 33 34 35 36 37 38 39 40 41 42 43 44 45 46 47 48 49 50
000
NZUS43 KILX 120010
HWRILX

Area Weather Roundup
National Weather Service Lincoln IL
600 PM CST MON DEC 11 2017

NOTE:  "FAIR" indicates few or no clouds below 12,000 feet, with
       no sigificant weather and/or obstructions to visibility.


CITY           SKY/WX    TMP DP  RH WIND       PRES   REMARKS
Bloomington    CLOUDY    40  27  59 NW23G31   29.76R WCI  30
6HR MIN TEMP:  40; 6HR MAX TEMP:  49;

Champaign      CLOUDY    42  26  53 W24G32    29.74R WCI  32
6HR MIN TEMP:  41; 6HR MAX TEMP:  53;

Danville       MOCLDY    41  26  54 W13G25    29.67R WCI  34
6HR MIN TEMP:  41; 6HR MAX TEMP:  48;

Decatur        CLOUDY    43  29  57 NW16G28   29.78R
6HR MIN TEMP:  43; 6HR MAX TEMP:  51;

Effingham      CLOUDY    47  32  55 W20G28    29.81R
6HR MIN TEMP:  47; 6HR MAX TEMP:  57;

Flora          CLOUDY    51  30  44 NW18G30   29.83R
6HR MIN TEMP:  51; 6HR MAX TEMP:  59;

Galesburg      CLOUDY    37  34  90 NW16G24   29.86R WCI  27
6HR MIN TEMP:  37; 6HR MAX TEMP:  46;

Jacksonville   CLOUDY    43  32  64 NW25G36   29.85R WCI  33
6HR MIN TEMP:  43; 6HR MAX TEMP:  51;

Lacon          LGT RAIN  34  32  93 NW8       29.80R WCI  27
6HR MIN TEMP:  34; 6HR MAX TEMP:  46;

Lawrenceville  CLEAR     49  27  42 W15G24    29.79R
6HR MIN TEMP:  48; 6HR MAX TEMP:  55;

Litchfield     CLOUDY    46  31  58 NW21G32   29.85R
6HR MIN TEMP:  46; 6HR MAX TEMP:  53;

$$


CITY           SKY/WX    TMP DP  RH WIND       PRES   REMARKS
Lincoln        CLOUDY    43  30  59 NW14G20   29.79R
6HR MIN TEMP:  43; 6HR MAX TEMP:  53;

Macomb         LGT RAIN  38  33  84 NW20G35   29.90R WCI  28
6HR MIN TEMP:  38; 6HR MAX TEMP:  49;

Mattoon        CLOUDY    46  30  53 NW23G32   29.76R
6HR MIN TEMP:  46; 6HR MAX TEMP:  54;

Mt Carmel AP   NOT AVBL
Olney-Noble AP CLOUDY    49  25  39 W23G30    29.81R
Paris AP       MOCLDY    42  29  58 W22G32    29.74R WCI  33
6HR MIN TEMP:  42; 6HR MAX TEMP:  51;

Peoria         CLOUDY    40  29  64 NW7       29.83R
6HR MIN TEMP:  40; 6HR MAX TEMP:  49; 6HR PCP: TRACE;

Pontiac        CLOUDY    39  29  66 NW13      29.75R WCI  32
6HR MIN TEMP:  39; 6HR MAX TEMP:  49;

Rantoul        CLOUDY    41  28  60 W20       29.71R WCI  32
6HR MIN TEMP:  41; 6HR MAX TEMP:  53;

Robinson       MOCLDY    46  27  47 W17G24    29.78R
6HR MIN TEMP:  44; 6HR MAX TEMP:  53;

Springfield    CLOUDY    45  33  63 NW18G26   29.83R
6HR MIN TEMP:  45; 6HR MAX TEMP:  53;

Taylorville    CLOUDY    44  31  61 NW23G36   29.82R WCI  34
6HR MIN TEMP:  44; 6HR MAX TEMP:  52;

$$

...REGIONAL REPORTS...


CITY           SKY/WX    TMP DP  RH WIND       PRES   REMARKS
Chicago O`Hare LGT SNOW  33  31  92 NW7       29.75R VSB 3/4 WCI  27
Kankakee       PTCLDY    35  26  70 N9        29.72R WCI  28
Moline         CLOUDY    36  34  92 NW16      29.85R WCI  26
Mount Sterling CLOUDY    40  34  76 NW18G28   29.88R WCI  31
Mount Vernon   CLOUDY    51  29  42 VRB7      29.85R
Pittsfield     CLOUDY    45  33  64 NW20G30   29.89R
Quincy         CLOUDY    43  33  68 NW23G31   29.90R WCI  34
Rockford       CLOUDY    32  29  88 NW7       29.80R FOG     WCI  26
$$


CITY           SKY/WX    TMP DP  RH WIND       PRES   REMARKS
Burlington     LGT RAIN  38  36  92 NW13G23   29.89R WCI  30
Cedar Rapids   CLOUDY    36  32  85 NW21G31   29.90R WCI  25
Des Moines     FLURRIES  35  30  82 NW23G30   30.05R WCI  23
Kirksville     CLOUDY    42  34  73 NW18G30   29.98R WCI  34
Ottumwa        CLOUDY    40  31  70 NW24G32   29.96R WCI  29
St Louis       CLOUDY    49  31  49 NW18G41   29.89R
$$


CITY           SKY/WX    TMP DP  RH WIND       PRES   REMARKS
Terre Haute    CLEAR     46  23  40 W15G21    29.74R
Evansville     CLEAR     53  28  38 W17G29    29.81R
Indianapolis   CLOUDY    45  29  53 W14       29.68R
Lafayette      PTCLDY    41  26  55 W9        29.66R
Madison        CLOUDY    31  26  82 NW8       29.80R WCI  23
Milwaukee      CLOUDY    34  26  72 NW10G20   29.76R WCI  26
$$






USA.gov is the U.S. government's official web portal to all federal, state and local government web resources and services.